Time,TemperatureF,DewpointF,PressureIn,WindDirection,WindDirectionDegrees,WindSpeedMPH,WindSpeedGustMPH,Humidity,HourlyPrecipIn,Conditions,Clouds,dailyrainin,SolarRadiationWatts/m^2,SoftwareType,DateUTC
2013-07-07 00:01:00,76.4,74.2,29.83,South,171,0.0,0.0,93,0.00,,,0.00,0,WeatherCatV1.15B25,2013-07-07 04:01:00,
2013-07-07 00:06:00,76.4,73.9,29.83,South,171,0.0,0.0,92,0.00,,,0.00,0,WeatherCatV1.15B25,2013-07-07 04:06:00,
2013-07-07 00:11:00,76.5,74.0,29.83,South,171,0.0,0.0,92,0.00,,,0.00,0,WeatherCatV1.15B25,2013-07-07 04:11:00,
2013-07-07 00:16:00,76.6,74.1,29.83,South,171,0.0,0.0,92,0.00,,,0.00,0,WeatherCatV1.15B25,2013-07-07 04:16:00,
2013-07-07 00:21:00,76.7,74.2,29.83,South,171,0.0,0.0,92,0.00,,,0.00,0,WeatherCatV1.15B25,2013-07-07 04:21:00,
2013-07-07 00:26:00,76.7,74.2,29.83,South,171,0.0,0.0,92,0.00,,,0.00,0,WeatherCatV1.15B25,2013-07-07 04:26:00,
2013-07-07 00:31:00,76.7,74.2,29.83,South,171,0.0,0.0,92,0.00,,,0.00,0,WeatherCatV1.15B25,2013-07-07 04:31:00,
2013-07-07 00:36:00,77.0,74.2,29.83,South,171,0.0,0.0,91,0.00,,,0.00,0,WeatherCatV1.15B25,2013-07-07 04:36:00,
2013-07-07 00:41:00,77.4,74.2,29.83,South,171,0.0,0.0,90,0.00,,,0.00,0,WeatherCatV1.15B25,2013-07-07 04:41:00,
2013-07-07 00:46:00,77.1,74.3,29.82,South,171,0.0,0.0,91,0.00,,,0.00,0,WeatherCatV1.15B25,2013-07-07 04:46:00,
2013-07-07 00:51:00,77.5,74.3,29.82,SSW,198,0.0,2.0,90,0.00,,,0.00,0,WeatherCatV1.15B25,2013-07-07 04:51:00,
2013-07-07 00:56:00,77.9,74.4,29.82,SSW,198,0.0,0.0,89,0.00,,,0.00,0,WeatherCatV1.15B25,2013-07-07 04:56:00,
2013-07-07 01:01:00,77.6,74.1,29.82,SSW,198,0.0,0.0,89,0.00,,,0.00,0,WeatherCatV1.15B25,2013-07-07 05:01:00,
2013-07-07 01:06:00,77.2,74.0,29.82,SSW,198,0.0,0.0,90,0.00,,,0.00,0,WeatherCatV1.15B25,2013-07-07 05:06:00,
2013-07-07 01:11:00,77.0,73.8,29.82,SSW,198,0.0,0.0,90,0.00,,,0.00,0,WeatherCatV1.15B25,2013-07-07 05:11:00,
2013-07-07 01:16:00,76.9,74.1,29.82,SSW,198,0.0,0.0,91,0.00,,,0.00,0,WeatherCatV1.15B25,2013-07-07 05:16:00,
2013-07-07 01:21:00,76.8,74.0,29.82,SSW,198,0.0,0.0,91,0.00,,,0.00,0,WeatherCatV1.15B25,2013-07-07 05:21:00,
2013-07-07 01:26:00,76.8,74.0,29.82,SSW,198,0.0,0.0,91,0.00,,,0.00,0,WeatherCatV1.15B25,2013-07-07 05:26:00,
2013-07-07 01:31:00,77.4,74.2,29.82,SSW,198,0.0,0.0,90,0.00,,,0.00,0,WeatherCatV1.15B25,2013-07-07 05:31:00,
2013-07-07 01:36:00,77.5,74.0,29.82,SSW,198,0.0,0.0,89,0.00,,,0.00,0,WeatherCatV1.15B25,2013-07-07 05:36:00,
2013-07-07 01:41:00,77.7,74.2,29.82,SSW,198,0.0,0.0,89,0.00,,,0.00,0,WeatherCatV1.15B25,2013-07-07 05:41:00,
2013-07-07 01:46:00,78.2,74.3,29.82,SW,219,0.0,1.0,88,0.00,,,0.00,0,WeatherCatV1.15B25,2013-07-07 05:46:00,
2013-07-07 01:51:00,78.4,74.2,29.82,SW,219,0.0,0.0,87,0.00,,,0.00,0,WeatherCatV1.15B25,2013-07-07 05:51:00,
2013-07-07 01:56:00,78.7,74.1,29.81,SW,218,0.0,2.0,86,0.00,,,0.00,0,WeatherCatV1.15B25,2013-07-07 05:56:00,
2013-07-07 02:00:00,78.8,74.2,29.82,SW,217,0.0,0.0,86,0.00,,,0.00,0,WeatherCatV1.15B25,2013-07-07 06:00:00,
2013-07-07 02:05:00,78.9,74.0,29.81,SSW,201,1.0,4.0,85,0.00,,,0.00,0,WeatherCatV1.15B25,2013-07-07 06:05:00,
2013-07-07 02:10:00,78.9,74.3,29.82,WSW,244,0.0,0.0,86,0.00,,,0.00,0,WeatherCatV1.15B25,2013-07-07 06:10:00,
2013-07-07 02:15:00,78.8,74.2,29.82,SSW,207,0.0,0.0,86,0.00,,,0.00,0,WeatherCatV1.15B25,2013-07-07 06:15:00,
2013-07-07 02:20:00,78.7,74.1,29.81,SSW,200,0.0,1.0,86,0.00,,,0.00,0,WeatherCatV1.15B25,2013-07-07 06:20:00,
2013-07-07 02:25:00,78.7,74.1,29.81,South,188,0.0,0.0,86,0.00,,,0.00,0,WeatherCatV1.15B25,2013-07-07 06:25:00,
2013-07-07 02:30:00,78.5,73.9,29.81,South,188,0.0,0.0,86,0.00,,,0.00,0,WeatherCatV1.15B25,2013-07-07 06:30:00,
2013-07-07 02:35:00,78.4,74.2,29.81,South,188,0.0,0.0,87,0.00,,,0.00,0,WeatherCatV1.15B25,2013-07-07 06:35:00,
2013-07-07 02:40:00,77.5,73.7,29.81,South,188,0.0,0.0,88,0.00,,,0.00,0,WeatherCatV1.15B25,2013-07-07 06:40:00,
2013-07-07 02:45:00,76.9,73.7,29.81,South,188,0.0,0.0,90,0.00,,,0.00,0,WeatherCatV1.15B25,2013-07-07 06:45:00,
2013-07-07 02:50:00,76.6,73.8,29.81,South,188,0.0,0.0,91,0.00,,,0.00,0,WeatherCatV1.15B25,2013-07-07 06:50:00,
2013-07-07 02:55:00,76.3,73.5,29.81,South,188,0.0,0.0,91,0.00,,,0.00,0,WeatherCatV1.15B25,2013-07-07 06:55:00,
2013-07-07 03:00:00,76.2,73.4,29.81,South,188,0.0,0.0,91,0.00,,,0.00,0,WeatherCatV1.15B25,2013-07-07 07:00:00,
2013-07-07 03:05:00,76.0,73.5,29.81,South,188,0.0,0.0,92,0.00,,,0.00,0,WeatherCatV1.15B25,2013-07-07 07:05:00,
2013-07-07 03:10:00,75.7,73.5,29.80,South,188,0.0,0.0,93,0.00,,,0.00,0,WeatherCatV1.15B25,2013-07-07 07:10:00,
2013-07-07 03:15:00,75.4,73.2,29.80,South,188,0.0,0.0,93,0.00,,,0.00,0,WeatherCatV1.15B25,2013-07-07 07:15:00,
2013-07-07 03:20:00,75.1,72.9,29.80,South,188,0.0,0.0,93,0.00,,,0.00,0,WeatherCatV1.15B25,2013-07-07 07:20:00,
2013-07-07 03:25:00,74.9,73.1,29.81,South,188,0.0,0.0,94,0.00,,,0.00,0,WeatherCatV1.15B25,2013-07-07 07:25:00,
2013-07-07 03:30:00,74.8,72.9,29.80,South,188,0.0,0.0,94,0.00,,,0.00,0,WeatherCatV1.15B25,2013-07-07 07:30:00,
2013-07-07 03:35:00,74.7,72.9,29.80,South,188,0.0,0.0,94,0.00,,,0.00,0,WeatherCatV1.15B25,2013-07-07 07:35:00,
2013-07-07 03:40:00,74.5,73.0,29.80,South,188,0.0,0.0,95,0.00,,,0.00,0,WeatherCatV1.15B25,2013-07-07 07:40:00,
2013-07-07 03:45:00,74.4,72.9,29.80,South,188,0.0,0.0,95,0.00,,,0.00,0,WeatherCatV1.15B25,2013-07-07 07:45:00,
2013-07-07 03:50:00,74.3,72.8,29.80,South,188,0.0,0.0,95,0.00,,,0.00,0,WeatherCatV1.15B25,2013-07-07 07:50:00,
2013-07-07 03:55:00,74.1,72.6,29.80,South,188,0.0,0.0,95,0.00,,,0.00,0,WeatherCatV1.15B25,2013-07-07 07:55:00,
2013-07-07 04:00:00,74.0,72.5,29.80,South,188,0.0,0.0,95,0.00,,,0.00,0,WeatherCatV1.15B25,2013-07-07 08:00:00,
2013-07-07 04:05:00,73.9,72.4,29.80,South,188,0.0,0.0,95,0.00,,,0.00,0,WeatherCatV1.15B25,2013-07-07 08:05:00,
2013-07-07 04:10:00,73.7,72.5,29.80,South,188,0.0,0.0,96,0.00,,,0.00,0,WeatherCatV1.15B25,2013-07-07 08:10:00,
2013-07-07 04:15:00,73.8,72.6,29.80,South,188,0.0,0.0,96,0.00,,,0.00,0,WeatherCatV1.15B25,2013-07-07 08:15:00,
2013-07-07 04:20:00,73.7,72.5,29.80,South,188,0.0,0.0,96,0.00,,,0.00,0,WeatherCatV1.15B25,2013-07-07 08:20:00,
2013-07-07 04:25:00,73.6,72.4,29.80,South,188,0.0,0.0,96,0.00,,,0.00,0,WeatherCatV1.15B25,2013-07-07 08:25:00,
2013-07-07 04:30:00,73.5,72.3,29.80,South,188,0.0,0.0,96,0.00,,,0.00,0,WeatherCatV1.15B25,2013-07-07 08:30:00,
2013-07-07 04:35:00,73.4,72.2,29.80,South,188,0.0,0.0,96,0.00,,,0.00,0,WeatherCatV1.15B25,2013-07-07 08:35:00,
2013-07-07 04:40:00,73.3,72.1,29.80,South,188,0.0,0.0,96,0.00,,,0.00,0,WeatherCatV1.15B25,2013-07-07 08:40:00,
2013-07-07 04:45:00,73.3,72.1,29.80,South,188,0.0,0.0,96,0.00,,,0.00,0,WeatherCatV1.15B25,2013-07-07 08:45:00,
2013-07-07 04:50:00,73.3,72.1,29.80,South,188,0.0,0.0,96,0.00,,,0.00,0,WeatherCatV1.15B25,2013-07-07 08:50:00,
2013-07-07 04:55:00,73.2,72.3,29.80,South,188,0.0,0.0,97,0.00,,,0.00,0,WeatherCatV1.15B25,2013-07-07 08:55:00,
2013-07-07 05:00:00,73.2,72.3,29.80,South,188,0.0,0.0,97,0.00,,,0.00,0,WeatherCatV1.15B25,2013-07-07 09:00:00,
2013-07-07 05:05:00,73.1,72.2,29.80,South,188,0.0,0.0,97,0.00,,,0.00,0,WeatherCatV1.15B25,2013-07-07 09:05:00,
2013-07-07 05:10:00,73.0,72.1,29.80,South,188,0.0,0.0,97,0.00,,,0.00,0,WeatherCatV1.15B25,2013-07-07 09:10:00,
2013-07-07 05:15:00,72.9,72.0,29.80,South,188,0.0,0.0,97,0.00,,,0.00,0,WeatherCatV1.15B25,2013-07-07 09:15:00,
2013-07-07 05:20:00,72.8,71.9,29.80,South,188,0.0,0.0,97,0.00,,,0.00,0,WeatherCatV1.15B25,2013-07-07 09:20:00,
2013-07-07 05:25:00,72.8,71.9,29.80,South,188,0.0,0.0,97,0.00,,,0.00,0,WeatherCatV1.15B25,2013-07-07 09:25:00,
2013-07-07 05:30:00,72.7,71.8,29.80,South,188,0.0,0.0,97,0.00,,,0.00,0,WeatherCatV1.15B25,2013-07-07 09:30:00,
2013-07-07 05:35:00,72.6,71.7,29.80,South,188,0.0,0.0,97,0.00,,,0.00,0,WeatherCatV1.15B25,2013-07-07 09:35:00,
2013-07-07 05:40:00,72.5,71.6,29.80,South,188,0.0,0.0,97,0.00,,,0.00,0,WeatherCatV1.15B25,2013-07-07 09:40:00,
2013-07-07 05:45:00,72.3,71.4,29.80,South,188,0.0,0.0,97,0.00,,,0.00,0,WeatherCatV1.15B25,2013-07-07 09:45:00,
2013-07-07 05:50:00,72.3,71.4,29.80,South,188,0.0,0.0,97,0.00,,,0.00,0,WeatherCatV1.15B25,2013-07-07 09:50:00,
2013-07-07 05:55:00,72.3,71.4,29.80,South,188,0.0,0.0,97,0.00,,,0.00,5,WeatherCatV1.15B25,2013-07-07 09:55:00,
2013-07-07 06:00:00,72.3,71.4,29.80,South,188,0.0,0.0,97,0.00,,,0.00,5,WeatherCatV1.15B25,2013-07-07 10:00:00,
2013-07-07 06:05:00,72.4,71.5,29.80,South,188,0.0,0.0,97,0.00,,,0.00,9,WeatherCatV1.15B25,2013-07-07 10:05:00,
2013-07-07 06:10:00,72.4,71.5,29.80,South,188,0.0,0.0,97,0.00,,,0.00,9,WeatherCatV1.15B25,2013-07-07 10:10:00,
2013-07-07 06:15:00,72.5,71.6,29.80,South,188,0.0,0.0,97,0.00,,,0.00,11,WeatherCatV1.15B25,2013-07-07 10:15:00,
2013-07-07 06:20:00,72.6,71.7,29.80,South,188,0.0,0.0,97,0.00,,,0.00,11,WeatherCatV1.15B25,2013-07-07 10:20:00,
2013-07-07 06:25:00,72.7,71.8,29.80,South,188,0.0,0.0,97,0.00,,,0.00,12,WeatherCatV1.15B25,2013-07-07 10:25:00,
2013-07-07 06:30:00,72.8,71.9,29.80,South,188,0.0,0.0,97,0.00,,,0.00,14,WeatherCatV1.15B25,2013-07-07 10:30:00,
2013-07-07 06:35:00,73.0,72.1,29.80,South,188,0.0,0.0,97,0.00,,,0.00,14,WeatherCatV1.15B25,2013-07-07 10:35:00,
2013-07-07 06:40:00,73.2,72.3,29.81,South,188,0.0,0.0,97,0.00,,,0.00,16,WeatherCatV1.15B25,2013-07-07 10:40:00,
2013-07-07 06:45:00,73.5,72.6,29.81,South,188,0.0,0.0,97,0.00,,,0.00,16,WeatherCatV1.15B25,2013-07-07 10:45:00,
2013-07-07 06:50:00,73.9,73.0,29.81,South,188,0.0,0.0,97,0.00,,,0.00,18,WeatherCatV1.15B25,2013-07-07 10:50:00,
2013-07-07 06:55:00,74.6,73.4,29.81,South,188,0.0,0.0,96,0.00,,,0.00,16,WeatherCatV1.15B25,2013-07-07 10:55:00,
2013-07-07 07:00:00,75.1,73.6,29.81,South,188,0.0,1.0,95,0.00,,,0.00,18,WeatherCatV1.15B25,2013-07-07 11:00:00,
2013-07-07 07:05:00,75.6,73.7,29.80,South,188,0.0,0.0,94,0.00,,,0.00,19,WeatherCatV1.15B25,2013-07-07 11:05:00,
2013-07-07 07:10:00,76.0,73.8,29.81,South,189,0.0,1.0,93,0.00,,,0.00,23,WeatherCatV1.15B25,2013-07-07 11:10:00,
2013-07-07 07:15:00,76.5,74.0,29.81,South,188,0.0,1.0,92,0.00,,,0.00,23,WeatherCatV1.15B25,2013-07-07 11:15:00,
2013-07-07 07:20:00,77.0,73.8,29.81,SSW,211,0.0,2.0,90,0.00,,,0.00,23,WeatherCatV1.15B25,2013-07-07 11:20:00,
2013-07-07 07:25:00,77.3,73.8,29.81,SSW,211,0.0,1.0,89,0.00,,,0.00,23,WeatherCatV1.15B25,2013-07-07 11:25:00,
2013-07-07 07:30:00,77.5,73.7,29.81,South,175,0.0,1.0,88,0.00,,,0.00,23,WeatherCatV1.15B25,2013-07-07 11:30:00,
2013-07-07 07:35:00,77.8,73.6,29.81,SSW,205,0.0,1.0,87,0.00,,,0.00,23,WeatherCatV1.15B25,2013-07-07 11:35:00,
2013-07-07 07:40:00,78.0,73.5,29.81,WSW,246,2.0,3.0,86,0.00,,,0.00,23,WeatherCatV1.15B25,2013-07-07 11:40:00,
2013-07-07 07:45:00,78.3,73.4,29.81,South,181,0.0,2.0,85,0.00,,,0.00,25,WeatherCatV1.15B25,2013-07-07 11:45:00,
2013-07-07 07:50:00,78.5,73.2,29.81,SSW,198,3.0,4.0,84,0.00,,,0.00,25,WeatherCatV1.15B25,2013-07-07 11:50:00,
2013-07-07 07:55:00,78.7,73.1,29.81,South,179,0.0,2.0,83,0.00,,,0.00,25,WeatherCatV1.15B25,2013-07-07 11:55:00,
2013-07-07 08:00:00,78.9,73.3,29.81,SW,229,1.0,2.0,83,0.00,,,0.00,25,WeatherCatV1.15B25,2013-07-07 12:00:00,
2013-07-07 08:05:00,79.0,73.4,29.81,SW,223,2.0,4.0,83,0.00,,,0.00,26,WeatherCatV1.15B25,2013-07-07 12:05:00,
2013-07-07 08:10:00,79.2,73.6,29.81,SW,229,1.0,2.0,83,0.00,,,0.00,25,WeatherCatV1.15B25,2013-07-07 12:10:00,
2013-07-07 08:15:00,79.3,73.3,29.81,South,190,1.0,4.0,82,0.00,,,0.00,26,WeatherCatV1.15B25,2013-07-07 12:15:00,
2013-07-07 08:20:00,79.5,73.5,29.80,SSW,194,0.0,0.0,82,0.00,,,0.00,26,WeatherCatV1.15B25,2013-07-07 12:20:00,
2013-07-07 08:25:00,79.5,73.5,29.80,South,183,1.0,1.0,82,0.00,,,0.00,28,WeatherCatV1.15B25,2013-07-07 12:25:00,
2013-07-07 08:30:00,79.6,73.2,29.81,WSW,240,2.0,3.0,81,0.00,,,0.00,28,WeatherCatV1.15B25,2013-07-07 12:30:00,
2013-07-07 08:35:00,79.9,73.5,29.81,SSW,213,1.0,2.0,81,0.00,,,0.00,28,WeatherCatV1.15B25,2013-07-07 12:35:00,
2013-07-07 08:40:00,80.0,73.6,29.81,South,180,0.0,2.0,81,0.00,,,0.00,21,WeatherCatV1.15B25,2013-07-07 12:40:00,
2013-07-07 08:45:00,80.1,73.4,29.81,South,190,0.0,2.0,80,0.00,,,0.00,32,WeatherCatV1.15B25,2013-07-07 12:45:00,
2013-07-07 08:50:00,80.3,73.9,29.81,South,184,0.0,0.0,81,0.00,,,0.00,21,WeatherCatV1.15B25,2013-07-07 12:50:00,
2013-07-07 08:55:00,80.2,73.8,29.81,South,191,1.0,2.0,81,0.00,,,0.00,21,WeatherCatV1.15B25,2013-07-07 12:55:00,
2013-07-07 09:00:00,80.3,73.5,29.80,SW,219,0.0,4.0,80,0.00,,,0.00,32,WeatherCatV1.15B25,2013-07-07 13:00:00,
2013-07-07 09:05:00,80.5,73.7,29.80,SSW,202,0.0,2.0,80,0.00,,,0.00,33,WeatherCatV1.15B25,2013-07-07 13:05:00,
2013-07-07 09:10:00,80.7,73.9,29.81,South,181,0.0,1.0,80,0.00,,,0.00,39,WeatherCatV1.15B25,2013-07-07 13:10:00,
2013-07-07 09:15:00,80.9,73.8,29.81,SW,219,0.0,5.0,79,0.00,,,0.00,40,WeatherCatV1.15B25,2013-07-07 13:15:00,
2013-07-07 09:20:00,81.1,73.9,29.81,SSW,194,0.0,1.0,79,0.00,,,0.00,40,WeatherCatV1.15B25,2013-07-07 13:20:00,
2013-07-07 09:25:00,81.3,73.8,29.81,SSW,199,0.0,0.0,78,0.00,,,0.00,42,WeatherCatV1.15B25,2013-07-07 13:25:00,
2013-07-07 09:30:00,81.4,74.2,29.80,SSW,199,0.0,2.0,79,0.00,,,0.00,44,WeatherCatV1.15B25,2013-07-07 13:30:00,
2013-07-07 09:35:00,81.6,73.7,29.80,South,186,0.0,4.0,77,0.00,,,0.00,44,WeatherCatV1.15B25,2013-07-07 13:35:00,
2013-07-07 09:40:00,81.8,74.2,29.80,South,175,0.0,1.0,78,0.00,,,0.00,46,WeatherCatV1.15B25,2013-07-07 13:40:00,
2013-07-07 09:45:00,81.9,74.3,29.80,SSW,192,0.0,3.0,78,0.00,,,0.00,47,WeatherCatV1.15B25,2013-07-07 13:45:00,
2013-07-07 09:50:00,82.2,74.2,29.80,SSW,192,0.0,4.0,77,0.00,,,0.00,49,WeatherCatV1.15B25,2013-07-07 13:50:00,
2013-07-07 09:55:00,82.3,74.3,29.80,WSW,254,0.0,3.0,77,0.00,,,0.00,49,WeatherCatV1.15B25,2013-07-07 13:55:00,
2013-07-07 10:00:00,82.6,74.2,29.80,WSW,257,2.0,5.0,76,0.00,,,0.00,51,WeatherCatV1.15B25,2013-07-07 14:00:00,
2013-07-07 10:05:00,82.8,74.8,29.79,SW,233,0.0,3.0,77,0.00,,,0.00,51,WeatherCatV1.15B25,2013-07-07 14:05:00,
2013-07-07 10:10:00,83.2,74.4,29.79,South,183,2.0,4.0,75,0.00,,,0.00,53,WeatherCatV1.15B25,2013-07-07 14:10:00,
2013-07-07 10:15:00,83.4,74.6,29.80,SW,236,0.0,2.0,75,0.00,,,0.00,54,WeatherCatV1.15B25,2013-07-07 14:15:00,
2013-07-07 10:20:00,83.7,74.9,29.80,West,273,0.0,4.0,75,0.00,,,0.00,58,WeatherCatV1.15B25,2013-07-07 14:20:00,
2013-07-07 10:25:00,84.0,74.4,29.79,SW,223,0.0,3.0,73,0.00,,,0.00,69,WeatherCatV1.15B25,2013-07-07 14:25:00,
2013-07-07 10:30:00,84.2,74.6,29.80,SW,225,0.0,2.0,73,0.00,,,0.00,62,WeatherCatV1.15B25,2013-07-07 14:30:00,
2013-07-07 10:35:00,84.3,74.7,29.79,West,270,0.0,2.0,73,0.00,,,0.00,69,WeatherCatV1.15B25,2013-07-07 14:35:00,
2013-07-07 10:40:00,84.1,74.9,29.79,SSW,205,0.0,2.0,74,0.00,,,0.00,79,WeatherCatV1.15B25,2013-07-07 14:40:00,
2013-07-07 10:45:00,84.2,75.0,29.79,South,185,0.0,1.0,74,0.00,,,0.00,139,WeatherCatV1.15B25,2013-07-07 14:45:00,
2013-07-07 10:50:00,84.4,75.6,29.78,SSW,201,2.0,2.0,75,0.00,,,0.00,206,WeatherCatV1.15B25,2013-07-07 14:50:00,
2013-07-07 10:55:00,84.7,74.6,29.78,West,265,1.0,2.0,72,0.00,,,0.00,67,WeatherCatV1.15B25,2013-07-07 14:55:00,
2013-07-07 11:00:00,84.7,75.5,29.78,SSW,199,0.0,0.0,74,0.00,,,0.00,65,WeatherCatV1.15B25,2013-07-07 15:00:00,
2013-07-07 11:05:00,85.0,74.9,29.78,South,187,2.0,2.0,72,0.00,,,0.00,70,WeatherCatV1.15B25,2013-07-07 15:05:00,
2013-07-07 11:10:00,85.2,75.5,29.78,South,187,0.0,0.0,73,0.00,,,0.00,79,WeatherCatV1.15B25,2013-07-07 15:10:00,
2013-07-07 11:15:00,85.6,75.1,29.78,West,267,3.0,3.0,71,0.00,,,0.00,72,WeatherCatV1.15B25,2013-07-07 15:15:00,
2013-07-07 11:20:00,85.6,75.1,29.77,WSW,251,0.0,1.0,71,0.00,,,0.00,70,WeatherCatV1.15B25,2013-07-07 15:20:00,
2013-07-07 11:25:00,85.7,75.6,29.78,South,191,1.0,3.0,72,0.00,,,0.00,74,WeatherCatV1.15B25,2013-07-07 15:25:00,
2013-07-07 11:30:00,85.9,75.4,29.77,South,187,0.0,1.0,71,0.00,,,0.00,74,WeatherCatV1.15B25,2013-07-07 15:30:00,
2013-07-07 11:35:00,86.0,75.5,29.77,SSW,213,0.0,3.0,71,0.00,,,0.00,74,WeatherCatV1.15B25,2013-07-07 15:35:00,
2013-07-07 11:40:00,86.3,75.8,29.77,SSW,194,0.0,0.0,71,0.00,,,0.00,74,WeatherCatV1.15B25,2013-07-07 15:40:00,
2013-07-07 11:45:00,86.3,75.8,29.77,WSW,244,2.0,3.0,71,0.00,,,0.00,76,WeatherCatV1.15B25,2013-07-07 15:45:00,
2013-07-07 11:50:00,86.5,75.9,29.77,WSW,244,0.0,0.0,71,0.00,,,0.00,77,WeatherCatV1.15B25,2013-07-07 15:50:00,
2013-07-07 11:55:00,86.8,75.8,29.77,SW,219,1.0,4.0,70,0.00,,,0.00,79,WeatherCatV1.15B25,2013-07-07 15:55:00,
2013-07-07 12:00:00,87.0,76.4,29.77,South,189,0.0,0.0,71,0.00,,,0.00,79,WeatherCatV1.15B25,2013-07-07 16:00:00,
2013-07-07 12:05:00,87.3,76.3,29.77,SSW,192,0.0,0.0,70,0.00,,,0.00,83,WeatherCatV1.15B25,2013-07-07 16:05:00,
2013-07-07 12:10:00,87.3,76.3,29.77,SSW,196,2.0,3.0,70,0.00,,,0.00,86,WeatherCatV1.15B25,2013-07-07 16:10:00,
2013-07-07 12:15:00,87.3,74.5,29.77,South,190,0.0,4.0,66,0.00,,,0.00,86,WeatherCatV1.15B25,2013-07-07 16:15:00,
2013-07-07 12:20:00,87.3,75.9,29.77,SSW,205,2.0,3.0,69,0.00,,,0.00,83,WeatherCatV1.15B25,2013-07-07 16:20:00,
2013-07-07 12:25:00,87.6,74.8,29.77,South,178,0.0,1.0,66,0.00,,,0.00,86,WeatherCatV1.15B25,2013-07-07 16:25:00,
2013-07-07 12:30:00,87.6,75.3,29.77,SW,223,0.0,2.0,67,0.00,,,0.00,93,WeatherCatV1.15B25,2013-07-07 16:30:00,
2013-07-07 12:35:00,87.8,75.9,29.77,South,182,2.0,3.0,68,0.00,,,0.00,104,WeatherCatV1.15B25,2013-07-07 16:35:00,
2013-07-07 12:40:00,88.1,74.8,29.77,South,184,0.0,3.0,65,0.00,,,0.00,95,WeatherCatV1.15B25,2013-07-07 16:40:00,
2013-07-07 12:45:00,87.8,75.0,29.76,South,184,0.0,1.0,66,0.00,,,0.00,102,WeatherCatV1.15B25,2013-07-07 16:45:00,
2013-07-07 12:50:00,88.2,75.4,29.76,SSW,205,1.0,1.0,66,0.00,,,0.00,134,WeatherCatV1.15B25,2013-07-07 16:50:00,
2013-07-07 12:55:00,88.4,74.6,29.76,South,189,4.0,4.0,64,0.00,,,0.00,135,WeatherCatV1.15B25,2013-07-07 16:55:00,
2013-07-07 13:00:00,88.4,74.2,29.76,SSW,192,0.0,5.0,63,0.00,,,0.00,114,WeatherCatV1.15B25,2013-07-07 17:00:00,
2013-07-07 13:05:00,88.6,74.8,29.76,SW,226,1.0,5.0,64,0.00,,,0.00,116,WeatherCatV1.15B25,2013-07-07 17:05:00,
2013-07-07 13:10:00,88.7,74.0,29.76,SSW,210,2.0,6.0,62,0.00,,,0.00,137,WeatherCatV1.15B25,2013-07-07 17:10:00,
2013-07-07 13:15:00,89.0,74.7,29.76,SSW,192,0.0,4.0,63,0.00,,,0.00,149,WeatherCatV1.15B25,2013-07-07 17:15:00,
2013-07-07 13:20:00,89.4,74.1,29.76,South,188,3.0,4.0,61,0.00,,,0.00,151,WeatherCatV1.15B25,2013-07-07 17:20:00,
2013-07-07 13:25:00,89.7,74.4,29.76,West,281,1.0,3.0,61,0.00,,,0.00,163,WeatherCatV1.15B25,2013-07-07 17:25:00,
2013-07-07 13:30:00,90.1,74.8,29.76,South,184,0.0,6.0,61,0.00,,,0.00,160,WeatherCatV1.15B25,2013-07-07 17:30:00,
2013-07-07 13:35:00,89.8,74.5,29.76,South,179,4.0,6.0,61,0.00,,,0.00,257,WeatherCatV1.15B25,2013-07-07 17:35:00,
2013-07-07 13:40:00,90.2,76.8,29.76,WSW,237,5.0,5.0,65,0.00,,,0.00,911,WeatherCatV1.15B25,2013-07-07 17:40:00,
2013-07-07 13:45:00,90.2,75.9,29.75,West,278,0.0,2.0,63,0.00,,,0.00,930,WeatherCatV1.15B25,2013-07-07 17:45:00,
2013-07-07 13:50:00,90.1,75.8,29.75,South,186,1.0,3.0,63,0.00,,,0.00,947,WeatherCatV1.15B25,2013-07-07 17:50:00,
2013-07-07 13:55:00,90.4,75.6,29.75,SSW,202,0.0,3.0,62,0.00,,,0.00,937,WeatherCatV1.15B25,2013-07-07 17:55:00,
2013-07-07 14:00:00,90.7,75.8,29.75,SW,225,0.0,2.0,62,0.00,,,0.00,937,WeatherCatV1.15B25,2013-07-07 18:00:00,
2013-07-07 14:05:00,90.4,75.6,29.75,SSW,203,3.0,3.0,62,0.00,,,0.00,928,WeatherCatV1.15B25,2013-07-07 18:05:00,
2013-07-07 14:10:00,90.5,76.1,29.74,SSW,200,2.0,2.0,63,0.00,,,0.00,918,WeatherCatV1.15B25,2013-07-07 18:10:00,
2013-07-07 14:15:00,90.9,76.5,29.74,SSW,203,2.0,5.0,63,0.00,,,0.00,944,WeatherCatV1.15B25,2013-07-07 18:15:00,
2013-07-07 14:20:00,90.8,76.4,29.74,South,178,0.0,1.0,63,0.00,,,0.00,868,WeatherCatV1.15B25,2013-07-07 18:20:00,
2013-07-07 14:25:00,90.9,76.0,29.74,SSW,192,0.0,2.0,62,0.00,,,0.00,837,WeatherCatV1.15B25,2013-07-07 18:25:00,
2013-07-07 14:30:00,90.8,77.8,29.74,South,180,0.0,1.0,66,0.00,,,0.00,858,WeatherCatV1.15B25,2013-07-07 18:30:00,
2013-07-07 14:35:00,91.7,76.3,29.73,South,177,2.0,3.0,61,0.00,,,0.00,798,WeatherCatV1.15B25,2013-07-07 18:35:00,
2013-07-07 14:40:00,91.4,78.9,29.73,SW,227,0.0,1.0,67,0.00,,,0.00,854,WeatherCatV1.15B25,2013-07-07 18:40:00,
2013-07-07 14:45:00,91.5,76.6,29.73,SSE,164,0.0,3.0,62,0.00,,,0.00,909,WeatherCatV1.15B25,2013-07-07 18:45:00,
2013-07-07 14:50:00,92.2,76.8,29.73,SW,219,2.0,4.0,61,0.00,,,0.00,900,WeatherCatV1.15B25,2013-07-07 18:50:00,
2013-07-07 14:55:00,92.5,78.0,29.73,South,182,0.0,1.0,63,0.00,,,0.00,895,WeatherCatV1.15B25,2013-07-07 18:55:00,
2013-07-07 15:00:00,92.7,77.7,29.72,South,176,0.0,1.0,62,0.00,,,0.00,928,WeatherCatV1.15B25,2013-07-07 19:00:00,
2013-07-07 15:05:00,92.5,77.5,29.72,SSW,199,0.0,3.0,62,0.00,,,0.00,926,WeatherCatV1.15B25,2013-07-07 19:05:00,
2013-07-07 15:10:00,92.3,77.4,29.72,WSW,250,2.0,2.0,62,0.00,,,0.00,870,WeatherCatV1.15B25,2013-07-07 19:10:00,
2013-07-07 15:15:00,92.7,78.2,29.72,SSW,211,0.0,0.0,63,0.00,,,0.00,838,WeatherCatV1.15B25,2013-07-07 19:15:00,
2013-07-07 15:20:00,93.1,78.1,29.72,West,261,1.0,3.0,62,0.00,,,0.00,788,WeatherCatV1.15B25,2013-07-07 19:20:00,
2013-07-07 15:25:00,93.5,76.5,29.72,SSE,157,0.0,4.0,58,0.00,,,0.00,156,WeatherCatV1.15B25,2013-07-07 19:25:00,
2013-07-07 15:30:00,92.5,76.0,29.71,South,171,1.0,4.0,59,0.00,,,0.00,555,WeatherCatV1.15B25,2013-07-07 19:30:00,
2013-07-07 15:33:00,92.2,77.3,29.72,South,188,1.0,1.0,62,0.00,,,0.00,199,WeatherCatV1.15B25,2013-07-07 19:33:00,
2013-07-07 15:38:00,91.9,77.0,29.72,WSW,238,2.0,3.0,62,0.00,,,0.00,603,WeatherCatV1.15B25,2013-07-07 19:38:00,
2013-07-07 15:43:00,92.0,76.1,29.72,SSW,209,1.0,8.0,60,0.00,,,0.00,643,WeatherCatV1.15B25,2013-07-07 19:43:00,
2013-07-07 15:48:00,92.1,75.2,29.71,WSW,247,3.0,4.0,58,0.00,,,0.00,698,WeatherCatV1.15B25,2013-07-07 19:48:00,
2013-07-07 15:53:00,92.2,76.3,29.71,WSW,242,3.0,3.0,60,0.00,,,0.00,735,WeatherCatV1.15B25,2013-07-07 19:53:00,
2013-07-07 15:58:00,92.3,75.3,29.71,South,173,2.0,3.0,58,0.00,,,0.00,768,WeatherCatV1.15B25,2013-07-07 19:58:00,
2013-07-07 16:03:00,91.9,75.5,29.71,South,179,2.0,5.0,59,0.00,,,0.00,512,WeatherCatV1.15B25,2013-07-07 20:03:00,
2013-07-07 16:08:00,91.6,76.7,29.71,SSW,211,0.0,4.0,62,0.00,,,0.00,596,WeatherCatV1.15B25,2013-07-07 20:08:00,
2013-07-07 16:13:00,91.7,77.3,29.71,SSW,204,2.0,2.0,63,0.00,,,0.00,693,WeatherCatV1.15B25,2013-07-07 20:13:00,
2013-07-07 16:18:00,91.6,76.2,29.71,South,187,0.0,5.0,61,0.00,,,0.00,689,WeatherCatV1.15B25,2013-07-07 20:18:00,
2013-07-07 16:23:00,91.5,76.6,29.71,West,262,4.0,4.0,62,0.00,,,0.00,696,WeatherCatV1.15B25,2013-07-07 20:23:00,
2013-07-07 16:28:00,91.7,76.8,29.70,WSW,248,0.0,3.0,62,0.00,,,0.00,605,WeatherCatV1.15B25,2013-07-07 20:28:00,
2013-07-07 16:33:00,91.8,75.9,29.70,South,171,5.0,7.0,60,0.00,,,0.00,95,WeatherCatV1.15B25,2013-07-07 20:33:00,
2013-07-07 16:38:00,91.3,76.4,29.70,South,188,0.0,0.0,62,0.00,,,0.00,633,WeatherCatV1.15B25,2013-07-07 20:38:00,
2013-07-07 16:43:00,91.6,76.2,29.70,SW,222,2.0,3.0,61,0.00,,,0.00,591,WeatherCatV1.15B25,2013-07-07 20:43:00,
2013-07-07 16:48:00,91.9,75.5,29.70,SSW,198,1.0,4.0,59,0.00,,,0.00,598,WeatherCatV1.15B25,2013-07-07 20:48:00,
2013-07-07 16:53:00,91.9,75.0,29.70,SW,234,1.0,4.0,58,0.00,,,0.00,557,WeatherCatV1.15B25,2013-07-07 20:53:00,
2013-07-07 16:58:00,92.0,76.1,29.70,WSW,238,1.0,1.0,60,0.00,,,0.00,450,WeatherCatV1.15B25,2013-07-07 20:58:00,
2013-07-07 17:03:00,92.0,74.5,29.70,SW,227,2.0,4.0,57,0.00,,,0.00,390,WeatherCatV1.15B25,2013-07-07 21:03:00,
2013-07-07 17:08:00,91.6,74.2,29.70,SW,235,2.0,5.0,57,0.00,,,0.00,522,WeatherCatV1.15B25,2013-07-07 21:08:00,
2013-07-07 17:13:00,91.3,75.4,29.69,SSE,163,0.0,1.0,60,0.00,,,0.00,527,WeatherCatV1.15B25,2013-07-07 21:13:00,
2013-07-07 17:18:00,91.8,75.4,29.70,SSW,200,0.0,3.0,59,0.00,,,0.00,513,WeatherCatV1.15B25,2013-07-07 21:18:00,
2013-07-07 17:23:00,92.0,75.1,29.70,SW,222,0.0,5.0,58,0.00,,,0.00,448,WeatherCatV1.15B25,2013-07-07 21:23:00,
2013-07-07 17:28:00,91.7,75.3,29.70,SSW,201,0.0,2.0,59,0.00,,,0.00,438,WeatherCatV1.15B25,2013-07-07 21:28:00,
2013-07-07 17:33:00,91.8,74.4,29.69,South,182,0.0,4.0,57,0.00,,,0.00,441,WeatherCatV1.15B25,2013-07-07 21:33:00,
2013-07-07 17:38:00,91.9,73.4,29.69,SW,214,3.0,6.0,55,0.00,,,0.00,265,WeatherCatV1.15B25,2013-07-07 21:38:00,
2013-07-07 17:43:00,91.8,73.8,29.69,SW,217,1.0,4.0,56,0.00,,,0.00,141,WeatherCatV1.15B25,2013-07-07 21:43:00,
2013-07-07 17:48:00,91.7,73.7,29.69,SSW,200,0.0,3.0,56,0.00,,,0.00,104,WeatherCatV1.15B25,2013-07-07 21:48:00,
2013-07-07 17:53:00,91.7,73.7,29.69,SW,226,0.0,3.0,56,0.00,,,0.00,105,WeatherCatV1.15B25,2013-07-07 21:53:00,
2013-07-07 17:58:00,91.5,73.5,29.69,SW,233,1.0,5.0,56,0.00,,,0.00,86,WeatherCatV1.15B25,2013-07-07 21:58:00,
2013-07-07 18:03:00,91.3,72.8,29.69,WSW,245,0.0,5.0,55,0.00,,,0.00,83,WeatherCatV1.15B25,2013-07-07 22:03:00,
2013-07-07 18:08:00,91.1,73.7,29.69,SW,230,1.0,2.0,57,0.00,,,0.00,86,WeatherCatV1.15B25,2013-07-07 22:08:00,
2013-07-07 18:13:00,91.1,73.7,29.70,SSW,209,0.0,2.0,57,0.00,,,0.00,132,WeatherCatV1.15B25,2013-07-07 22:13:00,
2013-07-07 18:18:00,91.0,73.6,29.70,South,182,0.0,2.0,57,0.00,,,0.00,83,WeatherCatV1.15B25,2013-07-07 22:18:00,
2013-07-07 18:23:00,90.9,74.0,29.70,SW,233,0.0,5.0,58,0.00,,,0.00,185,WeatherCatV1.15B25,2013-07-07 22:23:00,
2013-07-07 18:28:00,90.8,73.9,29.70,South,189,2.0,2.0,58,0.00,,,0.00,79,WeatherCatV1.15B25,2013-07-07 22:28:00,
2013-07-07 18:33:00,90.8,75.0,29.70,SSW,203,1.0,1.0,60,0.00,,,0.00,86,WeatherCatV1.15B25,2013-07-07 22:33:00,
2013-07-07 18:38:00,90.8,74.5,29.70,SSE,159,1.0,1.0,59,0.00,,,0.00,79,WeatherCatV1.15B25,2013-07-07 22:38:00,
2013-07-07 18:43:00,90.8,75.0,29.70,SSE,161,0.0,0.0,60,0.00,,,0.00,63,WeatherCatV1.15B25,2013-07-07 22:43:00,
2013-07-07 18:48:00,90.8,74.5,29.70,SW,234,0.0,1.0,59,0.00,,,0.00,98,WeatherCatV1.15B25,2013-07-07 22:48:00,
2013-07-07 18:53:00,90.6,74.8,29.70,West,267,1.0,1.0,60,0.00,,,0.00,125,WeatherCatV1.15B25,2013-07-07 22:53:00,
2013-07-07 18:58:00,90.5,75.7,29.70,SSW,197,1.0,1.0,62,0.00,,,0.00,155,WeatherCatV1.15B25,2013-07-07 22:58:00,
2013-07-07 19:03:00,90.3,75.0,29.70,SW,233,0.0,2.0,61,0.00,,,0.00,114,WeatherCatV1.15B25,2013-07-07 23:03:00,
2013-07-07 19:08:00,90.1,75.8,29.70,SW,232,0.0,0.0,63,0.00,,,0.00,130,WeatherCatV1.15B25,2013-07-07 23:08:00,
2013-07-07 19:13:00,89.9,75.6,29.70,South,174,0.0,2.0,63,0.00,,,0.00,109,WeatherCatV1.15B25,2013-07-07 23:13:00,
2013-07-07 19:18:00,89.7,75.4,29.70,SSW,193,1.0,1.0,63,0.00,,,0.00,47,WeatherCatV1.15B25,2013-07-07 23:18:00,
2013-07-07 19:23:00,89.4,75.1,29.71,SW,216,0.0,1.0,63,0.00,,,0.00,49,WeatherCatV1.15B25,2013-07-07 23:23:00,
2013-07-07 19:28:00,89.2,75.4,29.71,South,189,1.0,1.0,64,0.00,,,0.00,16,WeatherCatV1.15B25,2013-07-07 23:28:00,
2013-07-07 19:33:00,89.1,75.3,29.71,South,190,0.0,1.0,64,0.00,,,0.00,0,WeatherCatV1.15B25,2013-07-07 23:33:00,
2013-07-07 19:38:00,88.9,75.6,29.71,South,190,0.0,0.0,65,0.00,,,0.00,0,WeatherCatV1.15B25,2013-07-07 23:38:00,
2013-07-07 19:43:00,88.7,75.4,29.71,South,190,0.0,0.0,65,0.00,,,0.00,0,WeatherCatV1.15B25,2013-07-07 23:43:00,
2013-07-07 19:48:00,88.4,75.1,29.71,South,190,0.0,0.0,65,0.00,,,0.00,0,WeatherCatV1.15B25,2013-07-07 23:48:00,
2013-07-07 19:53:00,88.2,75.4,29.71,South,190,0.0,0.0,66,0.00,,,0.00,0,WeatherCatV1.15B25,2013-07-07 23:53:00,
2013-07-07 19:58:00,87.8,75.0,29.71,South,190,0.0,1.0,66,0.00,,,0.00,0,WeatherCatV1.15B25,2013-07-07 23:58:00,
2013-07-07 20:03:00,87.7,74.9,29.72,South,187,0.0,1.0,66,0.00,,,0.00,0,WeatherCatV1.15B25,2013-07-08 00:03:00,
2013-07-07 20:08:00,87.4,75.1,29.72,South,186,0.0,0.0,67,0.00,,,0.00,0,WeatherCatV1.15B25,2013-07-08 00:08:00,
2013-07-07 20:13:00,87.2,74.9,29.72,South,186,0.0,1.0,67,0.00,,,0.00,0,WeatherCatV1.15B25,2013-07-08 00:13:00,
2013-07-07 20:18:00,87.1,74.8,29.72,South,186,0.0,0.0,67,0.00,,,0.00,0,WeatherCatV1.15B25,2013-07-08 00:18:00,
2013-07-07 20:23:00,86.9,75.0,29.73,South,175,2.0,2.0,68,0.00,,,0.00,0,WeatherCatV1.15B25,2013-07-08 00:23:00,
2013-07-07 20:28:00,86.6,75.2,29.73,WSW,244,0.0,1.0,69,0.00,,,0.00,0,WeatherCatV1.15B25,2013-07-08 00:28:00,
2013-07-07 20:33:00,86.4,74.6,29.76,West,281,8.0,12.0,68,0.00,,,0.00,0,WeatherCatV1.15B25,2013-07-08 00:33:00,
2013-07-07 20:38:00,85.4,72.3,29.78,South,184,1.0,14.0,65,0.00,,,0.00,0,WeatherCatV1.15B25,2013-07-08 00:38:00,
2013-07-07 20:43:00,83.6,73.2,29.75,North,355,0.0,1.0,71,0.21,,,0.04,0,WeatherCatV1.15B25,2013-07-08 00:43:00,
2013-07-07 20:48:00,81.6,72.5,29.74,North,5,0.0,1.0,74,0.08,,,0.04,0,WeatherCatV1.15B25,2013-07-08 00:48:00,
2013-07-07 20:53:00,80.5,73.0,29.74,North,5,0.0,0.0,78,0.05,,,0.04,0,WeatherCatV1.15B25,2013-07-08 00:53:00,
2013-07-07 20:58:00,79.6,72.9,29.75,North,5,0.0,0.0,80,0.00,,,0.04,0,WeatherCatV1.15B25,2013-07-08 00:58:00,
2013-07-07 21:03:00,78.9,72.9,29.73,North,5,0.0,0.0,82,0.00,,,0.04,0,WeatherCatV1.15B25,2013-07-08 01:03:00,
2013-07-07 21:08:00,78.4,72.4,29.73,North,5,0.0,0.0,82,0.00,,,0.04,0,WeatherCatV1.15B25,2013-07-08 01:08:00,
2013-07-07 21:13:00,77.7,72.5,29.73,North,5,0.0,0.0,84,0.00,,,0.04,0,WeatherCatV1.15B25,2013-07-08 01:13:00,
2013-07-07 21:18:00,77.3,72.4,29.73,North,5,0.0,1.0,85,0.00,,,0.04,0,WeatherCatV1.15B25,2013-07-08 01:18:00,
2013-07-07 21:23:00,76.9,72.4,29.73,North,5,0.0,0.0,86,0.00,,,0.04,0,WeatherCatV1.15B25,2013-07-08 01:23:00,
2013-07-07 21:28:00,76.4,72.6,29.73,North,5,0.0,0.0,88,0.00,,,0.04,0,WeatherCatV1.15B25,2013-07-08 01:28:00,
2013-07-07 21:33:00,76.0,72.2,29.74,North,5,0.0,1.0,88,0.00,,,0.04,0,WeatherCatV1.15B25,2013-07-08 01:33:00,
2013-07-07 21:38:00,75.8,72.3,29.73,North,5,0.0,0.0,89,0.00,,,0.04,0,WeatherCatV1.15B25,2013-07-08 01:38:00,
2013-07-07 21:43:00,75.6,72.1,29.73,North,5,0.0,1.0,89,0.00,,,0.04,0,WeatherCatV1.15B25,2013-07-08 01:43:00,
2013-07-07 21:48:00,75.2,72.1,29.73,North,5,0.0,0.0,90,0.00,,,0.04,0,WeatherCatV1.15B25,2013-07-08 01:48:00,
2013-07-07 21:53:00,74.9,71.8,29.73,North,5,0.0,0.0,90,0.00,,,0.04,0,WeatherCatV1.15B25,2013-07-08 01:53:00,
2013-07-07 21:58:00,74.7,71.6,29.73,North,5,0.0,0.0,90,0.00,,,0.04,0,WeatherCatV1.15B25,2013-07-08 01:58:00,
2013-07-07 22:03:00,74.6,71.5,29.73,North,5,0.0,0.0,90,0.00,,,0.04,0,WeatherCatV1.15B25,2013-07-08 02:03:00,
2013-07-07 22:08:00,74.4,71.3,29.73,North,5,0.0,0.0,90,0.00,,,0.04,0,WeatherCatV1.15B25,2013-07-08 02:08:00,
2013-07-07 22:13:00,74.3,71.2,29.74,North,5,0.0,0.0,90,0.00,,,0.04,0,WeatherCatV1.15B25,2013-07-08 02:13:00,
2013-07-07 22:18:00,74.1,71.3,29.74,North,5,0.0,0.0,91,0.00,,,0.04,0,WeatherCatV1.15B25,2013-07-08 02:18:00,
2013-07-07 22:23:00,74.0,71.2,29.74,North,5,0.0,1.0,91,0.00,,,0.04,0,WeatherCatV1.15B25,2013-07-08 02:23:00,
2013-07-07 22:28:00,73.8,71.0,29.74,North,5,0.0,0.0,91,0.00,,,0.04,0,WeatherCatV1.15B25,2013-07-08 02:28:00,
2013-07-07 22:33:00,73.7,70.9,29.75,North,5,0.0,0.0,91,0.00,,,0.04,0,WeatherCatV1.15B25,2013-07-08 02:33:00,
2013-07-07 22:38:00,73.6,71.1,29.75,North,9,0.0,2.0,92,0.00,,,0.04,0,WeatherCatV1.15B25,2013-07-08 02:38:00,
2013-07-07 22:43:00,73.5,71.0,29.75,SW,214,0.0,0.0,92,0.00,,,0.04,0,WeatherCatV1.15B25,2013-07-08 02:43:00,
2013-07-07 22:48:00,73.4,70.9,29.75,SW,214,0.0,0.0,92,0.00,,,0.04,0,WeatherCatV1.15B25,2013-07-08 02:48:00,
2013-07-07 22:53:00,73.4,71.2,29.75,SW,214,0.0,0.0,93,0.00,,,0.04,0,WeatherCatV1.15B25,2013-07-08 02:53:00,
2013-07-07 22:58:00,73.3,71.1,29.75,SW,214,0.0,0.0,93,0.00,,,0.04,0,WeatherCatV1.15B25,2013-07-08 02:58:00,
2013-07-07 23:03:00,73.2,71.0,29.75,SW,214,0.0,0.0,93,0.00,,,0.04,0,WeatherCatV1.15B25,2013-07-08 03:03:00,
2013-07-07 23:08:00,73.2,71.0,29.75,SW,214,0.0,0.0,93,0.00,,,0.04,0,WeatherCatV1.15B25,2013-07-08 03:08:00,
2013-07-07 23:13:00,73.1,70.9,29.75,SW,214,0.0,0.0,93,0.00,,,0.04,0,WeatherCatV1.15B25,2013-07-08 03:13:00,
2013-07-07 23:18:00,73.0,70.8,29.75,SW,214,0.0,0.0,93,0.00,,,0.04,0,WeatherCatV1.15B25,2013-07-08 03:18:00,
2013-07-07 23:23:00,73.0,70.8,29.75,SW,214,0.0,0.0,93,0.00,,,0.04,0,WeatherCatV1.15B25,2013-07-08 03:23:00,
2013-07-07 23:28:00,72.9,71.1,29.75,SW,214,0.0,0.0,94,0.00,,,0.04,0,WeatherCatV1.15B25,2013-07-08 03:28:00,
2013-07-07 23:33:00,72.9,71.1,29.75,SW,214,0.0,0.0,94,0.00,,,0.04,0,WeatherCatV1.15B25,2013-07-08 03:33:00,
2013-07-07 23:38:00,72.8,71.0,29.75,SW,214,0.0,0.0,94,0.00,,,0.04,0,WeatherCatV1.15B25,2013-07-08 03:38:00,
2013-07-07 23:43:00,72.8,71.0,29.75,SW,214,0.0,0.0,94,0.00,,,0.04,0,WeatherCatV1.15B25,2013-07-08 03:43:00,
2013-07-07 23:48:00,72.8,70.7,29.76,SW,214,0.0,0.0,93,0.00,,,0.04,0,WeatherCatV1.15B25,2013-07-08 03:48:00,
2013-07-07 23:53:00,72.7,70.6,29.75,SW,214,0.0,0.0,93,0.00,,,0.04,0,WeatherCatV1.15B25,2013-07-08 03:53:00,
2013-07-07 23:58:00,72.6,70.5,29.76,South,186,0.0,0.0,93,0.00,,,0.04,0,WeatherCatV1.15B25,2013-07-08 03:58:00,